Location: Quedlinburg
(51.7921°N, 11.1414°E)
Time: 22:12:35
(UTC+02:00)

SEEDS - Pass Details

Date: 14 March 2026
Orbit: 470 x 477 km, 97.8° (Epoch: 21 April)

Event Time Altitude Azimuth Distance (km) Brightness Sun altitude
Rises 05:40:15 0° 15° (NNE) 2,565 ? -8.9°
Reaches altitude 10° 05:42:20 10° 18° (NNE) 1,678 ? -8.5°
Maximum altitude 05:45:56 71° 103° (ESE) 515 ? -8.0°
Drops below altitude 10° 05:49:29 10° 188° (S) 1,656 ? -7.4°
Sets 05:51:32 0° 191° (S) 2,528 ? -7.1°
